Weather History for KUIL - February, 2013

Change the Weather History Date:

Friday, February 22, 2013

  Actual Average Record
Temperature  
Mean Temperature 44 °F 42 °F  
Max Temperature 49 °F 50 °F 61 °F (2005)
Min Temperature 38 °F 35 °F 22 °F (1993)
Degree Days  
Heating Degree Days 21 23  
Month to date heating degree days 460 506  
Since 1 July heating degree days 3568 3711  
Cooling Degree Days 0 0  
Month to date cooling degree days 0 0  
Year to date cooling degree days 0 0  
Moisture  
Dew Point 39 °F    
Average Humidity 79    
Maximum Humidity 93    
Minimum Humidity 65    
Precipitation  
Precipitation 2.50 in 0.35 in 2.50 in (2013)
Month to date precipitation 6.91 8.17  
Year to date precipitation 17.25 22.78  
Sea Level Pressure  
Sea Level Pressure 29.81 in    
Wind  
Wind Speed 11 mph (SW)    
Max Wind Speed 23 mph    
Max Gust Speed 33 mph    
Visibility 2 miles    
Events Fog , Rain    
T = Trace of Precipitation, MM = Missing Value Source: NWS Daily Summary

Daily Weather History Graph

Daily Weather History Graph

Search for Another Location

Airport or City:

Trip Planner

Search our weather history database for the weather conditions in past years. The results will help you decide how hot, cold, wet, or windy it might be!

Date:

Astronomy

Feb. 22, 2013 Rise Set
Actual Time 7:11 AM PST 5:52 PM PST
Civil Twilight 6:40 AM PST 6:23 PM PST
Nautical Twilight 6:04 AM PST 6:59 PM PST
Astronomical Twilight 5:28 AM PST 7:35 PM PST
Moon 3:01 PM PST (2/22) 5:09 AM PST (2/22)
Length of Visible Light 11h 43m
Length of Day
10h 41m
Waxing Gibbous, 91% of the Moon is Illuminated
Feb 22
Waxing Gibbous
Feb 25
Full
Mar 4
Last Quarter
Mar 11
New
Mar 19
First Quarter

Hourly Weather History & Observations

Time (PST) Temp. Windchill Dew Point Humidity Pressure Visibility Wind Dir Wind Speed Gust Speed Precip Events Conditions
12:11 AM 44.6 °F 38.4 °F 39.2 °F 81% 30.03 in 2.0 mi SSW 12.7 mph 19.6 mph 0.04 in Rain Light Rain
12:33 AM 42.8 °F 38.0 °F 37.4 °F 81% 30.02 in 1.8 mi South 8.1 mph 16.1 mph 0.06 in Rain Light Rain
12:53 AM 43.0 °F 40.3 °F 37.9 °F 82% 30.03 in 2.5 mi South 4.6 mph - 0.07 in Rain Light Rain
1:24 AM 42.8 °F 39.3 °F 37.4 °F 81% 30.00 in 1.8 mi SSE 5.8 mph - 0.02 in Rain Light Rain
1:37 AM 42.8 °F 39.3 °F 39.2 °F 87% 30.00 in 1.5 mi Variable 5.8 mph - 0.04 in Rain Light Rain
1:53 AM 43.0 °F 38.8 °F 39.0 °F 86% 30.00 in 1.2 mi SSE 6.9 mph - 0.05 in Rain Light Rain
2:06 AM 44.6 °F 41.4 °F 39.2 °F 81% 29.98 in 1.5 mi South 5.8 mph - 0.02 in Rain Light Rain
2:24 AM 44.6 °F 40.7 °F 39.2 °F 81% 29.97 in 1.2 mi South 6.9 mph - 0.05 in Rain Light Rain
2:34 AM 44.6 °F 40.7 °F 39.2 °F 81% 29.95 in 1.8 mi SSE 6.9 mph - 0.06 in Rain Light Rain
2:53 AM 44.1 °F 40.8 °F 39.9 °F 85% 29.93 in 1.8 mi South 5.8 mph 17.3 mph 0.07 in Rain Light Rain
3:06 AM 44.6 °F 39.2 °F 39.2 °F 81% 29.93 in 1.5 mi SSE 10.4 mph 17.3 mph 0.01 in Rain Light Rain
3:08 AM 44.6 °F 39.7 °F 39.2 °F 81% 29.93 in 1.2 mi South 9.2 mph 17.3 mph 0.01 in Rain Light Rain
3:37 AM 44.6 °F 40.7 °F 41.0 °F 87% 29.91 in 0.8 mi Variable 6.9 mph 19.6 mph 0.03 in Rain Light Rain
3:53 AM 44.1 °F 39.5 °F 41.0 °F 89% 29.89 in 0.8 mi SSE 8.1 mph - 0.07 in Rain Rain
4:10 AM 44.6 °F 39.7 °F 41.0 °F 87% 29.87 in 1.0 mi SSE 9.2 mph 18.4 mph 0.04 in Rain Light Rain
4:53 AM 45.0 °F 39.7 °F 41.0 °F 86% 29.84 in 1.2 mi South 10.4 mph 23.0 mph 0.15 in Rain Rain
5:25 AM 46.4 °F 39.8 °F 42.8 °F 87% 29.81 in 1.5 mi South 16.1 mph 24.2 mph 0.12 in Rain Rain
5:53 AM 46.9 °F - 43.0 °F 86% 29.80 in 1.5 mi SSW 15.0 mph 28.8 mph 0.22 in Rain Rain
6:18 AM 46.4 °F 40.4 °F 42.8 °F 87% 29.81 in 1.2 mi South 13.8 mph 26.5 mph 0.12 in Rain Heavy Rain
6:32 AM 46.4 °F 40.1 °F 42.8 °F 87% 29.80 in 1.2 mi South 15.0 mph 26.5 mph 0.21 in Rain Rain
6:46 AM 46.4 °F 40.1 °F 42.8 °F 87% 29.80 in 1.2 mi South 15.0 mph 29.9 mph 0.29 in Rain Rain
6:53 AM 46.9 °F - 43.0 °F 86% 29.80 in 1.2 mi South 11.5 mph 27.6 mph 0.33 in Rain Rain
7:53 AM 46.9 °F - 44.1 °F 90% 29.75 in 1.0 mi South 13.8 mph 31.1 mph 0.36 in Rain Rain
8:49 AM 46.4 °F 40.4 °F 42.8 °F 87% 29.71 in 0.8 mi South 13.8 mph 25.3 mph 0.36 in Rain Heavy Rain
8:53 AM 46.4 °F 40.7 °F 42.8 °F 87% 29.72 in 0.5 mi South 12.7 mph 25.3 mph N/A Fog , Rain Heavy Rain
9:07 AM 46.4 °F 41.5 °F 44.6 °F 93% 29.72 in - SSW 10.4 mph 24.2 mph 0.10 in Rain Heavy Rain
9:17 AM 46.4 °F 41.5 °F 44.6 °F 93% 29.72 in 0.5 mi South 10.4 mph 20.7 mph 0.16 in Fog , Rain Rain
9:53 AM 48.0 °F - 45.0 °F 89% 29.71 in 0.8 mi SW 12.7 mph 19.6 mph 0.38 in Rain Heavy Rain
10:19 AM 48.2 °F - 44.6 °F 87% 29.71 in 1.0 mi West 11.5 mph 23.0 mph 0.11 in Rain Rain
10:28 AM 46.4 °F 42.4 °F 42.8 °F 87% 29.71 in 1.0 mi West 8.1 mph 20.7 mph 0.13 in Rain Rain
10:40 AM 46.4 °F 42.9 °F 42.8 °F 87% 29.71 in 0.8 mi West 6.9 mph - 0.16 in Rain Rain
10:51 AM 46.4 °F 42.4 °F 42.8 °F 87% 29.71 in 1.2 mi West 8.1 mph - 0.18 in Rain Light Rain
10:53 AM 46.9 °F - 43.0 °F 86% 29.71 in 1.8 mi West 8.1 mph - 0.18 in Rain Light Rain
10:56 AM 46.4 °F 43.5 °F 42.8 °F 87% 29.71 in 2.5 mi West 5.8 mph - 0.00 in Rain Light Rain
11:00 AM 46.4 °F 43.5 °F 42.8 °F 87% 29.71 in 1.2 mi West 5.8 mph - 0.01 in Rain Light Rain
11:09 AM 46.4 °F 42.9 °F 42.8 °F 87% 29.71 in 0.8 mi West 6.9 mph - 0.03 in Rain Light Rain
11:16 AM 46.4 °F 42.4 °F 42.8 °F 87% 29.71 in 0.8 mi WSW 8.1 mph - 0.04 in Rain Light Rain
11:39 AM 48.2 °F - 42.8 °F 82% 29.72 in 1.5 mi WSW 12.7 mph - 0.09 in Rain Light Rain
11:46 AM 48.2 °F - 42.8 °F 82% 29.72 in 2.5 mi SW 10.4 mph 18.4 mph 0.09 in Rain Light Rain
11:53 AM 48.0 °F - 44.1 °F 86% 29.72 in 2.5 mi WSW 11.5 mph - 0.09 in   Mostly Cloudy
12:53 PM 48.0 °F - 42.1 °F 80% 29.73 in 2.5 mi WSW 15.0 mph - N/A   Haze
1:46 PM 46.4 °F 40.4 °F 37.4 °F 71% 29.72 in 1.8 mi West 13.8 mph 23.0 mph 0.00 in Rain Light Rain
1:53 PM 46.9 °F - 39.0 °F 74% 29.73 in 2.0 mi West 13.8 mph - 0.00 in Rain Light Rain
2:38 PM 46.4 °F 40.4 °F 37.4 °F 71% 29.74 in 3.0 mi West 13.8 mph 20.7 mph 0.00 in   Haze
2:53 PM 46.0 °F 39.0 °F 37.0 °F 71% 29.76 in 3.0 mi West 17.3 mph 27.6 mph 0.00 in   Haze
3:53 PM 44.1 °F 38.1 °F 34.0 °F 68% 29.77 in 5.0 mi WSW 11.5 mph 23.0 mph N/A   Haze
4:34 PM 42.8 °F 35.4 °F 35.6 °F 76% 29.78 in 1.8 mi WNW 15.0 mph 20.7 mph 0.00 in Rain Light Rain
4:43 PM 39.2 °F 32.0 °F 35.6 °F 87% 29.78 in 1.0 mi West 11.5 mph 20.7 mph 0.03 in Rain Light Rain
4:50 PM 39.2 °F 32.5 °F 35.6 °F 87% 29.79 in 2.0 mi West 10.4 mph - 0.03 in Rain Light Rain
4:53 PM 41.0 °F 35.8 °F 36.0 °F 82% 29.79 in 3.0 mi West 8.1 mph - 0.03 in Rain Light Rain
5:30 PM 39.2 °F - 35.6 °F 87% 29.78 in 3.0 mi Calm Calm - 0.00 in   Mostly Cloudy
5:35 PM 39.2 °F 37.0 °F 35.6 °F 87% 29.79 in 1.8 mi SSW 3.5 mph - 0.00 in Rain Light Rain
5:38 PM 39.2 °F - 35.6 °F 87% 29.79 in 0.8 mi Calm Calm - 0.02 in Rain Heavy Rain
5:46 PM 39.2 °F 30.8 °F 33.8 °F 81% 29.80 in 1.0 mi WNW 15.0 mph 21.9 mph 0.06 in Rain Rain
5:50 PM 39.2 °F 30.8 °F 33.8 °F 81% 29.79 in 2.0 mi West 15.0 mph 21.9 mph 0.08 in Rain Light Rain
5:53 PM 39.9 °F 32.5 °F 34.0 °F 79% 29.80 in 2.5 mi WNW 12.7 mph 21.9 mph 0.08 in Rain Light Rain
6:00 PM 39.2 °F 33.0 °F 33.8 °F 81% 29.79 in 5.0 mi West 9.2 mph 18.4 mph 0.00 in Rain Light Rain
6:53 PM 39.0 °F 36.8 °F 34.0 °F 82% 29.81 in 4.0 mi West 3.5 mph - 0.00 in   Haze
7:11 PM 39.2 °F 30.8 °F 33.8 °F 81% 29.81 in 2.0 mi West 15.0 mph 25.3 mph 0.02 in Rain Heavy Rain
7:25 PM 39.2 °F 34.2 °F 33.8 °F 81% 29.81 in 4.0 mi WSW 6.9 mph - 0.03 in Rain Light Rain
7:53 PM 39.9 °F 33.9 °F 35.1 °F 83% 29.83 in 4.0 mi West 9.2 mph 20.7 mph 0.03 in   Haze
8:53 PM 41.0 °F 33.5 °F 34.0 °F 76% 29.86 in 4.0 mi West 13.8 mph 24.2 mph N/A   Haze
9:53 PM 43.0 °F 36.0 °F 35.1 °F 74% 29.87 in 4.0 mi West 13.8 mph 19.6 mph N/A   Haze
10:53 PM 43.0 °F 35.7 °F 35.1 °F 74% 29.89 in 4.0 mi WSW 15.0 mph - 0.00 in Rain Light Rain
11:14 PM 42.8 °F 37.0 °F 35.6 °F 76% 29.90 in 3.0 mi WNW 10.4 mph 27.6 mph 0.01 in Rain Light Rain
11:53 PM 43.0 °F 38.2 °F 37.0 °F 80% 29.91 in 6.0 mi West 8.1 mph - 0.01 in   Haze